Terug naar catalogus

STARLINK-3651

ActiefCommunicatieVLEO
NORAD 51985·PAYLOAD·🇺🇸 United States

Gelanceerd Mar 9, 2022 vanaf Cape Canaveral Space Force Station

Loading…

Volgende Passages (komende 24 uur)

TLE

VersSource: CelesTrak SupGP

Epoch: Sep 15, 2026, 01:10 UTC

1 51985C 22025AF  26258.04909722 -.00003154  00000+0 -10138-3 0  2583
2 51985  53.1579 257.1652 0001260  83.3798 292.3272 15.31711524    13

Volg STARLINK-3651 in realtime met AllMySat

Download on the App Store